Погода в Певеке

Россия / Чукотский автономный округ     69°42′06″N   170°17′59″E
темп.,
°C
ветер,
м/с
пор.,
м/с
влажн.,
%
обл.,
%
осадки,
мм/ч
давл.,
гПа
погр.,
м
29 сентября, ср
ср2900:00−5юв2176100 0.1 1007256
03:00−5ююв1180100 0.1 1007229
06:00−5ю3391100 0.3 1007318
09:00−4ююз2392100 0.8 1007284
12:00−4всв2286100 1.3 1008307
15:00−3с4688100 0.1 1008622
18:00−3сз8992100 0.8 1008652
21:00−1ссв6887100 0.6 1007464
30 сентября, чт
чт3000:00−1ссв111285100 0.6 1009639
03:00−2ссв101285100 0.1 1010928
06:00−2с111280100 0.2 10121162
09:00−2с101181100 0.2 1014990
12:00−2с91179100 0.3 10161010
15:00−2с798495 0.1 1018772
18:00−2с678491 0.3 1020667
21:00−2ссз568298 0.1 1021641
1 октября, пт
пт100:00−2ссз4691100 0.4 1022505
03:00−2сз6791100 0.6 1022559
06:00−2сз5692100 1.4 1023563
09:00−2ссз5689100 0.6 1023564
12:00−2ссз4583100 0.9 1023591
15:00−2ссз3478100 0.3 1023537
18:00−3ссв227656 0.3 1023417
21:00−5юв228655 0.0 1022119
2 октября, сб
сб200:00−5юв449576 0.1 1022175
03:00−6юв559568 0.1 1020220
06:00−7вюв349227 0.1 1019151
09:00−7вюв338516 0.0 1017121
12:00−4юв33721 0.0 1015158
15:00−4вюв34691 0.0 1014173
18:00−5юв456910 0.0 1013175
21:00−5юв577114 0.0 1012242
3 октября, вс
вс300:00−4юв610685 0.0 1011345
03:00−4юв6107085 0.0 1010424
06:00−3ююв61069100 0.0 1009486
09:00−3ююв7979100 0.0 1008464
12:00−3юв5791100 0.2 1008458
15:00−3юв349393 0.5 1008381
18:00−3ююв3392100 0.8 1008316
21:00−3ююв2292100 0.2 1009256